Other Public Products
Issued by NWS Grand Forks, ND

Home | Current Version | Previous Version | Graphics & Text | Print | Product List | Glossary On
Versions: 1 2 3 4 5 6 7 8 9 10 11 12 13 14 15 16 17 18 19 20 21 22 23 24 25 26 27 28 29 30 31 32 33 34 35 36 37 38 39 40 41 42 43 44 45 46 47 48 49 50
278
FPUS83 KFGF 280831
OPUFGF
PRAIRIE TO PINES WEATHER ROUNDUP
NATIONAL WEATHER SERVICE EASTERN NORTH DAKOTA/GRAND FORKS ND
300 AM CDT SUN MAY 28 2017

 **SATELLITE DATA USED TO AUGMENT SKY COVER AT AUTOMATED STATIONS**
 *****  WEATHER ACROSS EASTERN NORTH DAKOTA  *****

CITY           SKY/WX    TMP DP  RH WIND       PRES   REMARKS
GRAND FORKS    CLOUDY    53  50  89 SW5       29.74R
GRAND FORKS AF CLOUDY    53  47  83 NW8       29.74S
GRAND CITY NWS NOT AVBL
BUXTON           N/A     52  51  96 W3          N/A
DEVILS LAKE    FAIR      51  46  83 W12       29.79S
FARGO          MOCLDY    51  47  86 W9        29.76S
WAHPETON ARPT  FAIR      48  45  87 W9        29.79S
$$

 *****  WEATHER ACROSS CENTRAL AND WESTERN NORTH DAKOTA  *****

CITY           SKY/WX    TMP DP  RH WIND       PRES   REMARKS
JAMESTOWN      MOCLDY    49  43  80 W8        29.80F
BISMARCK       FAIR      44  40  85 CALM      29.88R
MINOT          CLOUDY    56  44  64 W13       29.85R
MINOT AFB      CLOUDY    53  48  84 W8        29.84S
GARRISON         N/A     45  41  86 NW12      29.87R
WILLISTON      FAIR      50  35  56 NW12      29.95R
DICKINSON      FAIR      42  37  82 W7        29.93R
HETTINGER      FAIR      46  40  79 NW8       29.96S
$$

 *****  OTHER OBSERVATIONS NORTHEAST NORTH DAKOTA  *****

CITY           SKY/WX    TMP DP  RH WIND       PRES   REMARKS
WALHALLA       NOT AVBL
LANGDON        CLOUDY    48  48 100 NW10      29.76F
CAVALIER       FAIR      48  46  93 NW8       29.73S
GRAFTON        FAIR      52  48  87 W12       29.75S
CANDO          NOT AVBL
FORT TOTTEN      N/A     49  47  93 W2        29.95S
ROLLA          PTSUNNY   50  46  87 NW9       29.81R
RUGBY          NOT AVBL
 ***** THE ABOVE OBSERVATIONS ARE NON NWS ARE NOT QUALITY
        CONTROLLED AND MAY MIS-REPORT RAIN FOR SNOW...
$$

 *****  OTHER OBSERVATIONS SOUTHEAST NORTH DAKOTA *****

CITY           SKY/WX    TMP DP  RH WIND       PRES   REMARKS
COOPERSTOWN    FAIR      45  45 100 W13       29.79S
VALLEY CITY    FAIR      45  45 100 W9        29.81F
OAKES          NOT AVBL
GWINNER        SUNNY     50  46  87 MISG      29.82R
SHEYENNE NWR     N/A     49  47  91 NW7       29.95S
BUFFALO          N/A     52  46  80 NW7         N/A
WYNDMERE         N/A     52  46  82 W8          N/A
 ***** THE ABOVE OBSERVATIONS ARE NON NWS ARE NOT QUALITY
       CONTROLLED AND MAY MIS-REPORT RAIN FOR SNOW...
$$

  *****  WEATHER ACROSS NORTHERN MINNESOTA  *****

CITY           SKY/WX    TMP DP  RH WIND       PRES   REMARKS
FLAG ISLAND    FAIR      57  46  67 NW10      29.64S
WARROAD        FAIR      54  46  76 W6        29.67F
ROSEAU         MOCLDY    54  46  76 W7        29.68F
HALLOCK        FAIR      48  45  87 NW6       29.72S
THF RVR FALLS  CLOUDY    51  48  89 W10       29.71F
HALSTAD          N/A     52  48  86 NW10        N/A
FOSSTON        CLOUDY    48  46  93 W7        29.72F
BAUDETTE       FAIR      52  45  77 SW8       29.66S
WASKISH        DRIZZLE   54  52  94 W8        29.68F
CROOKSTON      DRIZZLE   52  50  93 W7        29.74S
$$
  *****  WEATHER ACROSS CENTRAL AND WEST MINNESOTA  *****

CITY           SKY/WX    TMP DP  RH WIND       PRES   REMARKS
BEMIDJI        MOCLDY    50  48  90 SW7       29.71S
PARK RAPIDS    LGT RAIN  51  45  79 W9        29.71S
WADENA         FAIR      48  46  93 W8        29.73S
DETROIT LAKES  FAIR      48  46  93 NW8       29.75F
MOORHEAD       MOCLDY    52  46  82 NW10      29.77S
FERGUS FALLS   FAIR      48  48 100 NW8       29.76S
ELBOW LAKE     FAIR      50  47  92 NW8       29.78R
MORRIS MN      FAIR      52  48  87 W10       29.78S
STAPLES        FAIR      52  46  82 W10       29.73R
WHEATON        FAIR      54  46  76 W8        29.82R
$$
  *****  WEATHER ELSEWHERE ACROSS MINNESOTA  *****

CITY           SKY/WX    TMP DP  RH WIND       PRES   REMARKS
DULUTH         FAIR      57  45  64 SW12      29.72F
INTRNTL FALLS  MOCLDY    50  45  83 CALM      29.66F
ELY            FAIR      52  43  71 SE5       29.70S
CLOQUET        FAIR      54  43  66 S5        29.72F
BRAINERD       MOCLDY    56  46  69 SW5       29.72S
HIBBING        MOCLDY    43  43 100 CALM      29.69F
ALEXANDRIA     FAIR      53  47  79 W10       29.77R
SAINT CLOUD    MOCLDY    58  47  66 W6        29.74F
MINNEAPOLIS    MOCLDY    61  48  62 SW7       29.78F
$$

  *****  WEATHER ACROSS SOUTH DAKOTA  *****

CITY           SKY/WX    TMP DP  RH WIND       PRES   REMARKS
SIOUX FALLS    FAIR      56  52  86 W6        29.85F
BROOKINGS      FAIR      53  48  83 W8        29.84S
WATERTOWN      FAIR      52  46  80 W8        29.83R
HURON          FAIR      49  44  83 W8        29.86S
SISSETON         N/A     53  47  79 NW9       29.80S
ABERDEEN       FAIR      51  43  74 NW8       29.85S
MITCHELL       FAIR      54  47  77 W10       29.88S
PIERRE         FAIR      57  44  62 W16       29.89F
MOBRIDGE       FAIR      45  40  82 N3        29.85F
RAPID CITY     FAIR      49  38  65 W8        30.02F
$$

  *****  SOME WEATHER IN NEARBY STATES *****

CITY           SKY/WX    TMP DP  RH WIND       PRES   REMARKS
GLASGOW MT     MOCLDY    58  41  53 N9        30.04R
GREAT FALLS MT FAIR      51  41  68 E5        30.17S
CHEYENNE WY    FAIR      41  32  70 W9        30.25S
SCOTTSBLUFF NE FAIR      45  40  82 NW5       30.15S
OMAHA NE       FAIR      59  52  77 CALM      29.92S
DES MOINES IA  CLOUDY    58  55  90 W5        29.87F
DAVENPORT IA   MOCLDY    61  59  93 N3        29.79S
CHICAGO IL     MOCLDY    60  52  74 CALM      29.78F
EAU CLAIRE WI  CLOUDY    57  50  77 SW3       29.78F
LA CROSSE WI   CLOUDY    59  57  93 S6        29.81S
$$

  *****  SOME NATIONAL WEATHER *****

CITY           SKY/WX    TMP DP  RH WIND       PRES   REMARKS
LA GUARDIA NY  FAIR      60  56  86 E6        29.89F
RALEIGH NC     MOCLDY    67  66  97 CALM      29.84S
ATLANTA GA     MOCLDY    69  62  78 S3        29.94F
NEW ORLEANS LA MOCLDY    77  75  93 S6        29.92F
OKLAHOMA CITY  FAIR      70  61  73 N14       29.88R
ALBUQUERQUE NM FAIR      59  22  24 E9        30.16R
SALT LAKE CITY FAIR      58  42  55 CALM      30.22S
LOS ANGELES CA FAIR      60  57  89 SW5       30.02F
BOISE ID       FAIR      58  41  53 SE9       30.16S
SEATTLE WA     FAIR      65  48  54 N7        30.07R
$$

*** WEATHER ACROSS MANITOBA...SASKATCHEWAN AND ONTARIO ***
                ***ONTARIO***

CITY           SKY/WX    TMP DP  RH WIND       PRES   REMARKS
GERALDTON      PTCLDY    48  45  87 SW2       29.71F
THUNDER BAY    MOCLDY    48  43  81 NE7       29.71S
SIOUX LOOKOUT  CLOUDY    48  45  87 VRB2      29.65F
TORONTO        PTCLDY    55  52  88 NW3       29.88S
BIG TROUT LK   MOCLDY    48  46  93 S2        29.62S
PICKLE LAKE    NOT AVBL
DRYDEN         MOCLDY    52  46  82 E5        29.64F
KENORA         CLOUDY    54  46  76 NW8       29.64S
$$
                *** MANITOBA***

CITY           SKY/WX    TMP DP  RH WIND       PRES   REMARKS
BRANDON        MOCLDY    50  45  81 W8        29.78R
DAUPHIN        LGT RAIN  52  48  87 NW9       29.78S
ISLAND LAKE    CLOUDY    52  50  93 W6        29.61S
PILOT MOUND      N/A     50  45  81 W5          N/A
THE PAS        CLOUDY    45  41  87 N12G17    29.77R
THOMPSON       LGT RAIN  43  41  93 N12       29.72R
WINNIPEG       MOCLDY    48  46  93 NW6       29.71S
LYNN LAKE      LGT RAIN  39  39 100 N7        29.83S
CHURCHILL      CLOUDY    34  32  93 NE12      29.78F
GILLAM         CLOUDY    39  37  93 N12       29.68S FOG
$$
                ***SASKATCHEWAN***

CITY           SKY/WX    TMP DP  RH WIND       PRES   REMARKS
ESTEVAN        CLEAR     45  41  87 W8        29.91S
KINDERSLEY     PTCLDY    52  39  62 NW10      30.04R
LLOYDMINSTER   CLEAR     52  39  62 N8        30.10R
PRINCE ALBERT  PTCLDY    48  45  87 NW8       29.94R
REGINA         CLOUDY    48  39  71 N9        29.95R
YORKTON          N/A     48  45  87 W9        29.86R



USA.gov is the U.S. government's official web portal to all federal, state and local government web resources and services.